Location: Okie-Tex Star Party
(36.8978°N, 102.9520°W)
Time: 08:59:43
(UTC-05:00)

Amateur Radio Satellites - All Passes

Search period start: 25 September 2016 08:29
Search period end: 26 September 2016 08:29
Location: Okie-Tex Star Party, 36.8978°N, 102.9520°W

Satellite Date Start Highest point End Downlink Frequencies (MHz)
Time Altitude Azimuth
HO-68 25 Sep 08:33:23 08:38:18 20° 93° (E) 08:43:11 435.675
CINEMA 3 25 Sep 08:38:51 08:41:40 17° 94° (E) 08:44:31 145.822/145.860
DOVE 4 25 Sep 08:40:34 08:44:48 85° 100° (E) 08:48:56 437.250
CUSAT 1 25 Sep 09:12:34 09:18:21 24° 277° (W) 09:23:31 437.405
Cosmos 2499 25 Sep 09:12:52 09:18:10 23° 84° (E) 09:23:23 435.465 / 435.565
GONETS M04 25 Sep 09:13:00 09:20:33 33° 85° (E) 09:28:08
PRISM 25 Sep 09:27:12 09:30:58 34° 71° (ENE) 09:34:46 437.425
NOAA 15 25 Sep 09:27:14 09:30:43 18° 296° (WNW) 09:34:10 137.62
Cubesat XI-IV 25 Sep 09:32:00 09:35:49 20° 295° (WNW) 09:39:38 437.490
COMPASS 1 25 Sep 09:32:33 09:36:03 25° 96° (E) 09:39:30 437.405
CUTE-I 25 Sep 09:33:14 09:36:58 20° 295° (WNW) 09:40:41 437.470
STRAND 1 25 Sep 09:44:34 09:47:33 16° 268° (W) 09:50:34 437.568
CUTE 1.7 + AOD 2 25 Sep 09:47:29 09:51:48 86° 98° (E) 09:56:06 437.475
CANX-2 25 Sep 09:48:06 09:52:25 80° 285° (WNW) 09:56:43 2200.000
NOAA 18 25 Sep 09:48:27 09:52:10 19° 296° (WNW) 09:55:54 137.9125
SEEDS 25 Sep 09:54:41 09:58:57 71° 102° (ESE) 10:03:11 437.485
CUBEBUG 2 25 Sep 10:06:00 10:10:07 47° 99° (E) 10:14:20 437.445
O/OREOS (USA 219) 25 Sep 10:06:03 10:09:25 20° 300° (WNW) 10:12:50 437.305
DANDE 25 Sep 10:13:01 10:18:58 22° 277° (W) 10:24:44 436.750
CINEMA 3 25 Sep 10:15:11 10:18:52 31° 288° (WNW) 10:22:36 145.822/145.860
HO-68 25 Sep 10:19:25 10:26:31 69° 289° (WNW) 10:33:35 435.675
AAUSAT CUBESAT 2 25 Sep 10:26:10 10:30:23 87° 96° (E) 10:34:34 437.432
FUNcube-1 25 Sep 10:26:46 10:30:35 30° 97° (E) 10:34:26 145.935
UWE-3 25 Sep 10:30:28 10:34:42 59° 100° (E) 10:39:03 435.000/436.395/437.385
UNISAT 6 25 Sep 10:34:45 10:38:08 23° 69° (ENE) 10:41:30 437.425
DELFI C3 25 Sep 10:38:24 10:40:45 15° 93° (E) 10:43:04 145.870
BEESAT 3 25 Sep 10:47:52 10:50:06 14° 47° (NE) 10:52:19 437.485
PRISM 25 Sep 11:03:39 11:06:21 17° 266° (W) 11:09:03 437.425
Cosmos 2499 25 Sep 11:03:41 11:10:44 54° 281° (W) 11:17:38 435.465 / 435.565
ZACube-1 25 Sep 11:06:40 11:11:00 84° 283° (WNW) 11:15:24 437.345
COMPASS 1 25 Sep 11:08:06 11:11:29 24° 290° (WNW) 11:14:50 437.405
GONETS M04 25 Sep 11:08:31 11:16:58 49° 283° (WNW) 11:25:31
ANTELSAT 25 Sep 11:09:19 11:13:32 58° 74° (ENE) 11:17:43 437.575/2403.000
Oscar 11 25 Sep 11:10:34 11:14:56 78° 284° (WNW) 11:19:17 145.826/435.025
TIGRISAT 25 Sep 11:30:38 11:34:55 83° 257° (WSW) 11:39:12 435.000
BEESAT 2 25 Sep 11:36:26 11:39:39 22° 51° (NE) 11:42:51 435.950
QB50P2 25 Sep 11:42:11 11:45:00 18° 68° (ENE) 11:47:49 145.880/145.840
CUBEBUG 2 25 Sep 11:44:13 11:46:21 14° 293° (WNW) 11:48:29 437.445
POLYITAN 1 25 Sep 11:44:26 11:47:15 18° 68° (ENE) 11:50:04 437.675
HUMSAT D 25 Sep 11:53:13 11:57:26 60° 101° (E) 12:01:39 437.325/437.525
FUNcube-1 25 Sep 12:03:23 12:06:37 21° 291° (WNW) 12:09:54 145.935
UWE-3 25 Sep 12:09:24 12:10:40 11° 295° (WNW) 12:11:57 435.000/436.395/437.385
HO-68 25 Sep 12:10:43 12:12:55 12° 307° (NW) 12:15:08 435.675
UNISAT 6 25 Sep 12:11:08 12:14:43 26° 264° (W) 12:18:18 437.425
DELFI C3 25 Sep 12:12:00 12:15:40 35° 288° (WNW) 12:19:18 145.870
QB50P1 25 Sep 12:24:07 12:28:11 50° 74° (ENE) 12:32:16 145.935-145.965
BEESAT 3 25 Sep 12:24:10 12:28:01 50° 244° (WSW) 12:31:51 437.485
DUCHIFAT 1 25 Sep 12:25:21 12:29:20 44° 73° (ENE) 12:33:20 145.980
POPSAT HIP 1 25 Sep 12:37:13 12:41:25 72° 75° (ENE) 12:45:36 437.405
PHONESAT 2.4 25 Sep 12:37:21 12:40:03 33° 152° (SSE) 12:42:45 2401.200-2431.200
BUGSAT 1 25 Sep 12:40:25 12:43:51 26° 70° (ENE) 12:47:17 437.445
JAS-2 25 Sep 12:44:33 12:50:39 62° 72° (ENE) 12:57:36 435.910
AISAT 25 Sep 12:51:07 12:54:10 18° 94° (E) 12:57:12 437.250
NANOSAT C BR1 25 Sep 12:55:37 12:59:47 70° 258° (WSW) 13:04:00 145.865
50 SAT 25 Sep 12:59:17 13:01:54 18° 95° (E) 13:04:29 437.505
SPROUT 25 Sep 13:06:05 13:08:07 13° 92° (E) 13:10:09 437.525
BEESAT 2 25 Sep 13:13:59 13:17:26 28° 247° (WSW) 13:20:54 435.950
UKube-1 25 Sep 13:14:09 13:16:29 14° 93° (E) 13:18:48 .
QB50P2 25 Sep 13:16:41 13:20:31 34° 262° (W) 13:24:22 145.880/145.840
POLYITAN 1 25 Sep 13:18:58 13:22:46 33° 262° (W) 13:26:36 437.675
ESTCUBE 1 25 Sep 13:22:15 13:26:50 87° 102° (ESE) 13:31:21 437.505/2401.250
Oscar 19 25 Sep 13:27:28 13:31:13 21° 66° (ENE) 13:34:59 437.125/150
HUMSAT D 25 Sep 13:31:26 13:32:31 11° 295° (WNW) 13:33:35 437.325/437.525
VELOX 1 25 Sep 13:34:00 13:38:20 54° 100° (E) 13:42:37 145.980
AIST 2 25 Sep 13:34:26 13:37:05 16° 48° (NE) 13:39:44 435.215
DX 1 25 Sep 13:35:51 13:39:49 34° 98° (E) 13:43:45 434.975-435.025
M-CUBED/EXP-1 PRIME 25 Sep 13:37:42 13:40:36 29° 103° (ESE) 13:43:29 437.505
CUBEBUG 1 25 Sep 13:45:45 13:50:06 80° 284° (WNW) 13:54:24 437.445
Gurwin Techsat 1B 25 Sep 14:02:25 14:06:19 21° 65° (ENE) 14:10:12 435.225
QB50P1 25 Sep 14:02:52 14:04:13 11° 268° (W) 14:05:34 145.935-145.965
DUCHIFAT 1 25 Sep 14:03:22 14:05:13 13° 268° (W) 14:07:05 145.980
PHONESAT 2.4 25 Sep 14:13:12 14:16:07 54° 347° (NNW) 14:19:02 2401.200-2431.200
BUGSAT 1 25 Sep 14:15:59 14:19:10 21° 264° (W) 14:22:20 437.445
AISAT 25 Sep 14:26:44 14:30:43 34° 289° (WNW) 14:34:39 437.250
JAS-2 25 Sep 14:31:54 14:36:18 20° 271° (W) 14:41:06 435.910
50 SAT 25 Sep 14:32:23 14:35:21 23° 289° (WNW) 14:38:17 437.505
TISAT 1 25 Sep 14:35:27 14:38:58 26° 97° (E) 14:42:28 437.305
AUBIESAT-1 25 Sep 14:37:03 14:40:12 43° 290° (WNW) 14:43:20 437.475
SPROUT 25 Sep 14:40:13 14:44:16 44° 287° (WNW) 14:48:18 437.525
UKube-1 25 Sep 14:48:37 14:52:42 42° 288° (WNW) 14:56:45 .
Cosmos 2491 25 Sep 14:57:13 15:03:13 21° 80° (E) 15:09:14 435.465 / 435.565
YUBILEINY 25 Sep 15:03:16 15:11:28 43° 76° (ENE) 15:19:35 435.215
PCSat 25 Sep 15:04:03 15:09:11 40° 57° (ENE) 15:14:15 145.827
Oscar 19 25 Sep 15:05:14 15:10:11 45° 261° (W) 15:15:10 437.125/150
ITUPSAT 1 25 Sep 15:09:50 15:11:27 12° 91° (E) 15:13:04 437.325
AIST 2 25 Sep 15:11:47 15:15:50 49° 244° (WSW) 15:19:52 435.215
AO-7 25 Sep 15:12:16 15:18:46 26° 58° (ENE) 15:25:14 29.400- 29.500
VELOX 1 25 Sep 15:12:22 15:14:17 13° 296° (WNW) 15:16:11 145.980
DX 1 25 Sep 15:12:42 15:15:44 19° 293° (WNW) 15:18:45 434.975-435.025
M-CUBED/EXP-1 PRIME 25 Sep 15:13:36 15:14:53 12° 298° (WNW) 15:16:10 437.505
SWISSCUBE 25 Sep 15:22:54 15:26:20 19° 94° (E) 15:29:44 437.505
BEESAT 25 Sep 15:35:52 15:39:42 24° 96° (E) 15:43:32 436.000
Gurwin Techsat 1B 25 Sep 15:40:51 15:45:54 45° 261° (W) 15:50:59 435.225
Cosmos 2504 25 Sep 15:45:27 15:51:42 29° 73° (ENE) 15:58:15 435.465 / 435.565
PHONESAT 2.4 25 Sep 15:49:43 15:52:32 39° 4° (N) 15:55:22 2401.200-2431.200
ITAMSAT 1 25 Sep 15:52:04 15:57:09 64° 74° (ENE) 16:02:16 435.822/435.867
TISAT 1 25 Sep 16:11:15 16:14:27 22° 291° (WNW) 16:17:39 437.305
ITUPSAT 1 25 Sep 16:44:53 16:49:39 64° 286° (WNW) 16:54:24 437.325
SO-50 25 Sep 16:47:07 16:51:54 65° 117° (ESE) 16:56:40 436.795
PCSat 25 Sep 16:47:58 16:52:18 25° 253° (WSW) 16:56:37 145.827
Cosmos 2491 25 Sep 16:50:18 16:59:03 74° 278° (W) 17:07:54 435.465 / 435.565
HORYU 2 25 Sep 16:54:25 16:54:48 10° 63° (ENE) 16:55:10 437.375
SWISSCUBE 25 Sep 16:59:46 17:04:13 39° 289° (WNW) 17:08:39 437.505
YUBILEINY 25 Sep 17:00:20 17:08:00 37° 274° (W) 17:15:42 435.215
AO-7 25 Sep 17:02:34 17:10:50 68° 255° (WSW) 17:19:07 29.400- 29.500
AIST 1 25 Sep 17:04:32 17:07:28 18° 74° (ENE) 17:10:23
BEESAT 25 Sep 17:13:14 17:17:28 32° 290° (WNW) 17:21:41 436.000
STARS 25 Sep 17:17:14 17:19:04 12° 92° (E) 17:20:55 437.465
MOZHAYETS 4 25 Sep 17:25:36 17:30:12 60° 101° (E) 17:34:47
PHONESAT 2.4 25 Sep 17:25:51 17:28:49 83° 204° (SSW) 17:31:48 2401.200-2431.200
BRITE-PL 25 Sep 17:28:34 17:32:22 19° 65° (ENE) 17:36:09 437.365/2234.400
ITAMSAT 1 25 Sep 17:34:39 17:37:01 13° 268° (W) 17:39:23 435.822/435.867
Cosmos 2504 25 Sep 17:38:10 17:45:13 49° 269° (W) 17:52:44 435.465 / 435.565
KKS-1 25 Sep 18:10:24 18:14:48 69° 285° (WNW) 18:19:11 437.445
HORYU 2 25 Sep 18:26:20 18:30:43 70° 257° (WSW) 18:35:07 437.375
SO-50 25 Sep 18:29:45 18:32:48 17° 314° (NW) 18:35:52 436.795
O/OREOS (USA 219) 25 Sep 18:37:43 18:42:10 47° 66° (ENE) 18:46:35 437.305
CUBESAT XI-V 25 Sep 18:38:14 18:42:45 45° 99° (E) 18:47:12 437.345
AIST 1 25 Sep 18:41:20 18:45:06 31° 270° (W) 18:48:51
STARS 25 Sep 18:51:28 18:55:40 49° 287° (WNW) 18:59:53 437.465
Cosmos 2491 25 Sep 18:54:02 18:57:32 13° 299° (WNW) 19:01:02 435.465 / 435.565
HO-68 25 Sep 19:02:49 19:05:27 12° 54° (NE) 19:08:05 435.675
PHONESAT 2.4 25 Sep 19:02:53 19:04:39 15° 214° (SW) 19:06:25 2401.200-2431.200
LilacSat-2 25 Sep 19:03:13 19:06:50 46° 74° (ENE) 19:10:27 437.200
NOAA 15 25 Sep 19:03:51 19:09:06 69° 73° (ENE) 19:14:24 137.62
BRITE-PL 25 Sep 19:04:42 19:10:17 60° 260° (W) 19:15:54 437.365/2234.400
MOZHAYETS 4 25 Sep 19:04:46 19:06:49 13° 296° (WNW) 19:08:51
GOMX 1 25 Sep 19:07:41 19:13:07 69° 76° (ENE) 19:18:21 467.674
Cubesat XI-IV 25 Sep 19:10:39 19:15:53 63° 73° (ENE) 19:21:08 437.490
CUTE-I 25 Sep 19:11:39 19:16:53 65° 74° (ENE) 19:22:09 437.470
GONETS M04 25 Sep 19:27:46 19:31:41 13° 62° (ENE) 19:35:34
NOAA 18 25 Sep 19:30:38 19:36:06 81° 76° (ENE) 19:41:35 137.9125
CINEMA 3 25 Sep 19:39:08 19:41:30 14° 67° (ENE) 19:43:49 145.822/145.860
DOVE 4 25 Sep 19:42:38 19:47:43 67° 76° (ENE) 19:52:33 437.250
STRAND 1 25 Sep 20:16:38 20:20:35 22° 95° (E) 20:24:30 437.568
CUBESAT XI-V 25 Sep 20:16:45 20:19:43 17° 294° (WNW) 20:22:41 437.345
O/OREOS (USA 219) 25 Sep 20:18:40 20:21:06 14° 261° (W) 20:23:32 437.305
RS-15 25 Sep 20:18:42 20:28:39 36° 105° (ESE) 20:39:02 29.354- 29.394
COMPASS 1 25 Sep 20:22:29 20:24:27 13° 66° (ENE) 20:26:26 437.405
CUSAT 1 25 Sep 20:27:00 20:32:37 64° 94° (E) 20:39:46 437.405
CUTE 1.7 + AOD 2 25 Sep 20:37:42 20:41:41 43° 73° (ENE) 20:45:43 437.475
CANX-2 25 Sep 20:38:19 20:42:24 51° 74° (ENE) 20:46:32 2200.000
SEEDS 25 Sep 20:44:06 20:47:53 34° 72° (ENE) 20:51:43 437.485
HO-68 25 Sep 20:44:47 20:51:55 72° 72° (ENE) 20:59:03 435.675
NOAA 15 25 Sep 20:47:03 20:49:19 13° 269° (W) 20:51:36 137.62
GOMX 1 25 Sep 20:48:55 20:51:31 13° 269° (W) 20:54:05 467.674
Cubesat XI-IV 25 Sep 20:53:39 20:56:20 14° 268° (W) 20:59:03 437.490
CUTE-I 25 Sep 20:54:50 20:57:21 13° 269° (W) 20:59:53 437.470
Cosmos 2499 25 Sep 20:55:53 21:03:02 44° 78° (ENE) 21:10:41 435.465 / 435.565
CUBEBUG 2 25 Sep 21:02:15 21:05:54 29° 71° (ENE) 21:09:30 437.445
CINEMA 3 25 Sep 21:13:50 21:18:16 48° 260° (W) 21:22:32 145.822/145.860
AAUSAT CUBESAT 2 25 Sep 21:13:55 21:17:48 40° 73° (ENE) 21:21:42 437.432
NOAA 18 25 Sep 21:16:01 21:17:19 11° 269° (W) 21:18:37 137.9125
FUNcube-1 25 Sep 21:21:06 21:23:50 17° 68° (ENE) 21:26:32 145.935
GONETS M04 25 Sep 21:21:13 21:30:05 77° 83° (E) 21:38:48
DOVE 4 25 Sep 21:23:43 21:25:41 12° 269° (W) 21:27:38 437.250
UWE-3 25 Sep 21:25:30 21:29:17 34° 72° (ENE) 21:33:02 435.000/436.395/437.385
DANDE 25 Sep 21:34:25 21:39:00 89° 103° (ESE) 21:45:17 436.750
STRAND 1 25 Sep 21:55:04 21:59:50 39° 290° (WNW) 22:04:36 437.568
COMPASS 1 25 Sep 21:55:34 21:59:33 46° 261° (W) 22:03:36 437.405
ZACube-1 25 Sep 22:00:11 22:04:13 54° 75° (ENE) 22:08:16 437.345
Oscar 11 25 Sep 22:02:43 22:06:55 58° 75° (ENE) 22:11:10 145.826/435.025
CUSAT 1 25 Sep 22:11:00 22:15:27 20° 296° (WNW) 22:20:35 437.405
ISS 25 Sep 22:12:58 22:16:13 83° 319° (NW) 22:19:30 145.825
CUTE 1.7 + AOD 2 25 Sep 22:15:37 22:17:43 13° 268° (W) 22:19:50 437.475
CANX-2 25 Sep 22:17:15 22:18:32 11° 269° (W) 22:19:49 2200.000
SEEDS 25 Sep 22:20:59 22:23:40 17° 267° (W) 22:26:23 437.485
AO-85 25 Sep 22:27:26 22:32:38 61° 116° (ESE) 22:37:33 145.980
RS-15 25 Sep 22:28:54 22:40:21 63° 306° (NW) 22:52:28 29.354- 29.394
HO-68 25 Sep 22:35:26 22:40:10 19° 267° (W) 22:44:56 435.675
CUBEBUG 2 25 Sep 22:39:25 22:42:31 20° 265° (W) 22:45:36 437.445
HUMSAT D 25 Sep 22:42:31 22:46:02 29° 71° (ENE) 22:49:35 437.325/437.525
PRISM 25 Sep 22:45:37 22:49:47 78° 104° (ESE) 22:53:52 437.425
Cosmos 2499 25 Sep 22:49:23 22:55:53 32° 273° (W) 23:02:48 435.465 / 435.565
AAUSAT CUBESAT 2 25 Sep 22:51:15 22:53:26 14° 268° (W) 22:55:38 437.432
DELFI C3 25 Sep 22:54:44 22:58:42 88° 258° (WSW) 23:02:44 145.870
JUGNU 25 Sep 22:55:10 22:57:43 13° 173° (S) 23:00:16 437.505
FUNcube-1 25 Sep 22:56:04 22:59:48 32° 263° (W) 23:03:33 145.935
UWE-3 25 Sep 23:03:11 23:05:49 16° 266° (W) 23:08:26 435.000/436.395/437.385
ANTELSAT 25 Sep 23:04:20 23:06:47 14° 93° (E) 23:09:15 437.575/2403.000
GONETS M04 25 Sep 23:20:03 23:25:48 20° 280° (W) 23:31:34
DANDE 25 Sep 23:22:09 23:23:17 11° 303° (WNW) 23:24:26 436.750
TIGRISAT 25 Sep 23:24:38 23:28:09 23° 96° (E) 23:31:44 435.000
Oscar 11 25 Sep 23:42:50 23:43:23 10° 269° (W) 23:43:57 145.826/435.025
AISAT 25 Sep 23:47:17 23:49:28 14° 65° (ENE) 23:51:39 437.250
AUBIESAT-1 25 Sep 23:49:11 23:50:06 11° 62° (ENE) 23:51:00 437.475
ISS 25 Sep 23:51:25 23:53:09 13° 337° (NNW) 23:54:52 145.825
JAS-2 26 Sep 00:00:28 00:02:29 11° 85° (E) 00:04:29 435.910
UNISAT 6 26 Sep 00:03:46 00:08:10 72° 101° (E) 00:12:39 437.425
AO-85 26 Sep 00:09:50 00:13:24 19° 312° (NW) 00:16:51 145.980
HUMSAT D 26 Sep 00:18:49 00:21:40 18° 266° (W) 00:24:32 437.325/437.525
ESTCUBE 1 26 Sep 00:19:11 00:23:37 59° 74° (ENE) 00:28:06 437.505/2401.250
M-CUBED/EXP-1 PRIME 26 Sep 00:21:21 00:25:08 32° 68° (ENE) 00:28:42 437.505
POPSAT HIP 1 26 Sep 00:25:49 00:27:57 14° 93° (E) 00:30:05 437.405
VELOX 1 26 Sep 00:28:56 00:33:01 36° 71° (ENE) 00:37:05 145.980
DX 1 26 Sep 00:29:27 00:32:54 23° 68° (ENE) 00:36:22 434.975-435.025
CUBEBUG 1 26 Sep 00:38:57 00:43:19 62° 75° (ENE) 00:47:42 437.445
ANTELSAT 26 Sep 00:39:28 00:43:39 44° 287° (WNW) 00:47:55 437.575/2403.000
NANOSAT C BR1 26 Sep 00:42:53 00:46:05 21° 95° (E) 00:49:17 145.865
JUGNU 26 Sep 00:42:56 00:45:54 14° 183° (S) 00:48:50 437.505
RS-15 26 Sep 00:47:21 00:56:04 22° 335° (NNW) 01:05:03 29.354- 29.394
TIGRISAT 26 Sep 01:01:04 01:04:47 27° 289° (WNW) 01:08:33 435.000
QB50P2 26 Sep 01:03:24 01:07:25 42° 99° (E) 01:11:26 145.880/145.840
POLYITAN 1 26 Sep 01:05:38 01:09:39 42° 99° (E) 01:13:40 437.675
50 SAT 26 Sep 01:05:49 01:09:26 81° 258° (WSW) 01:13:05 437.505
AUBIESAT-1 26 Sep 01:20:00 01:24:09 59° 254° (WSW) 01:28:02 437.475
AISAT 26 Sep 01:21:06 01:25:28 52° 260° (W) 01:29:50 437.250
SO-50 26 Sep 01:21:10 01:25:13 30° 52° (NE) 01:29:10 436.795
TISAT 1 26 Sep 01:25:49 01:28:19 16° 67° (ENE) 01:30:49 437.305
SPROUT 26 Sep 01:30:49 01:35:05 82° 257° (WSW) 01:39:23 437.525
SRMSAT 26 Sep 01:35:11 01:37:59 14° 174° (S) 01:40:47 437.500
UKube-1 26 Sep 01:40:15 01:44:33 70° 258° (WSW) 01:48:54 .
JAS-2 26 Sep 01:40:45 01:48:39 72° 102° (ESE) 01:56:09 435.910
QB50P1 26 Sep 01:46:30 01:50:39 60° 285° (WNW) 01:54:46 145.935-145.965
DUCHIFAT 1 26 Sep 01:46:54 01:51:04 69° 284° (WNW) 01:55:13 145.980
M-CUBED/EXP-1 PRIME 26 Sep 01:56:37 01:59:37 18° 259° (W) 02:02:29 437.505
BUGSAT 1 26 Sep 01:58:48 02:02:47 61° 100° (E) 02:06:45 437.445
ESTCUBE 1 26 Sep 01:59:27 02:00:46 11° 269° (W) 02:02:05 437.505/2401.250
POPSAT HIP 1 26 Sep 01:59:56 02:03:54 42° 287° (WNW) 02:07:52 437.405
DX 1 26 Sep 02:05:11 02:08:56 28° 263° (W) 02:12:42 434.975-435.025
VELOX 1 26 Sep 02:06:31 02:09:33 18° 266° (W) 02:12:36 145.980
BEESAT 3 26 Sep 02:12:11 02:15:52 43° 115° (ESE) 02:19:36 437.485
ITUPSAT 1 26 Sep 02:15:09 02:16:39 11° 62° (ENE) 02:18:09 437.325
NANOSAT C BR1 26 Sep 02:18:13 02:21:46 27° 290° (WNW) 02:25:20 145.865
CUBEBUG 1 26 Sep 02:19:34 02:19:57 10° 269° (W) 02:20:20 437.445
SWISSCUBE 26 Sep 02:27:37 02:30:48 18° 66° (ENE) 02:33:59 437.505
BEESAT 26 Sep 02:40:22 02:43:58 22° 67° (ENE) 02:47:34 436.000
QB50P2 26 Sep 02:40:32 02:42:50 15° 294° (WNW) 02:45:09 145.880/145.840
POLYITAN 1 26 Sep 02:42:47 02:45:04 14° 294° (WNW) 02:47:22 437.675
TISAT 1 26 Sep 02:59:41 03:03:37 39° 261° (W) 03:07:34 437.305
SO-50 26 Sep 03:01:48 03:05:33 26° 248° (WSW) 03:09:13 436.795
BEESAT 2 26 Sep 03:02:47 03:06:43 84° 118° (ESE) 03:10:42 435.950
Cosmos 2491 26 Sep 03:03:40 03:12:16 51° 78° (ENE) 03:20:45 435.465 / 435.565
RS-15 26 Sep 03:07:56 03:15:24 17° 12° (NNE) 03:22:54 29.354- 29.394
Oscar 19 26 Sep 03:18:48 03:23:59 78° 103° (ESE) 03:29:07 437.125/150
SRMSAT 26 Sep 03:23:26 03:26:19 14° 185° (S) 03:29:12 437.500
JAS-2 26 Sep 03:26:57 03:32:50 24° 299° (WNW) 03:38:36 435.910
ITUPSAT 1 26 Sep 03:49:06 03:53:50 72° 258° (WSW) 03:58:37 437.325
BEESAT 3 26 Sep 03:51:22 03:53:44 15° 312° (NW) 03:56:08 437.485
Gurwin Techsat 1B 26 Sep 03:59:01 04:04:21 87° 104° (ESE) 04:09:41 435.225
YUBILEINY 26 Sep 04:00:50 04:09:18 55° 90° (E) 04:17:44 435.215
SWISSCUBE 26 Sep 04:03:43 04:08:13 43° 261° (W) 04:12:46 437.505
ITAMSAT 1 26 Sep 04:07:40 04:12:04 27° 96° (E) 04:16:27 435.822/435.867
BEESAT 26 Sep 04:17:11 04:21:30 35° 262° (W) 04:25:51 436.000
Cosmos 2504 26 Sep 04:22:35 04:28:16 24° 85° (E) 04:33:46 435.465 / 435.565
MOZHAYETS 4 26 Sep 04:25:07 04:29:24 42° 73° (ENE) 04:33:44
ISS 26 Sep 04:42:48 04:45:58 42° 36° (NE) 04:49:07 145.825
Oscar 19 26 Sep 05:00:42 05:02:35 12° 299° (WNW) 05:04:29 437.125/150
Cosmos 2491 26 Sep 05:01:12 05:08:38 32° 276° (W) 05:16:02 435.465 / 435.565
KKS-1 26 Sep 05:05:44 05:10:12 81° 76° (ENE) 05:14:40 437.445
AIST 2 26 Sep 05:06:43 05:10:43 58° 117° (ESE) 05:14:47 435.215
AO-7 26 Sep 05:06:48 05:14:46 49° 102° (ESE) 05:22:41 29.400- 29.500
RS-15 26 Sep 05:21:26 05:32:54 41° 44° (NE) 05:44:06 29.354- 29.394
AIST 1 26 Sep 05:32:56 05:34:37 12° 85° (E) 05:36:17
CUBESAT XI-V 26 Sep 05:39:12 05:43:25 34° 71° (ENE) 05:47:39 437.345
Gurwin Techsat 1B 26 Sep 05:42:01 05:43:30 11° 300° (WNW) 05:45:01 435.225
PCSat 26 Sep 05:43:03 05:48:20 59° 113° (ESE) 05:53:40 145.827
STARS 26 Sep 05:45:17 05:49:40 77° 256° (WSW) 05:54:04 437.465
ITAMSAT 1 26 Sep 05:46:53 05:51:29 33° 291° (WNW) 05:56:06 435.822/435.867
YUBILEINY 26 Sep 05:58:58 06:06:24 30° 288° (WNW) 06:13:53 435.215
MOZHAYETS 4 26 Sep 06:03:57 06:06:45 16° 267° (W) 06:09:33
Cosmos 2504 26 Sep 06:13:50 06:21:08 53° 281° (W) 06:28:09 435.465 / 435.565
HORYU 2 26 Sep 06:19:53 06:23:35 25° 96° (E) 06:27:17 437.375
ISS 26 Sep 06:20:04 06:22:12 16° 231° (SW) 06:24:21 145.825
DANDE 26 Sep 06:34:09 06:38:05 14° 61° (ENE) 06:41:57 436.750
AIST 2 26 Sep 06:47:26 06:49:33 14° 314° (NW) 06:51:42 435.215
AO-7 26 Sep 06:59:58 07:07:15 36° 299° (WNW) 07:14:32 29.400- 29.500
AO-85 26 Sep 07:02:23 07:05:45 23° 50° (NE) 07:08:58 145.980
CUSAT 1 26 Sep 07:03:58 07:11:23 45° 73° (ENE) 07:17:41 437.405
AIST 1 26 Sep 07:07:27 07:11:42 48° 280° (W) 07:15:58
BRITE-PL 26 Sep 07:12:51 07:17:36 56° 99° (E) 07:21:59 437.365/2234.400
GOMX 1 26 Sep 07:13:28 07:16:44 20° 93° (E) 07:19:53 467.674
CUBESAT XI-V 26 Sep 07:17:15 07:20:49 21° 266° (W) 07:24:24 437.345
NOAA 15 26 Sep 07:21:45 07:26:25 31° 97° (E) 07:31:02 137.62
PCSat 26 Sep 07:28:15 07:32:07 20° 311° (NW) 07:36:01 145.827
STRAND 1 26 Sep 07:30:24 07:34:30 25° 67° (ENE) 07:38:38 437.568
Cubesat XI-IV 26 Sep 07:30:33 07:35:13 30° 97° (E) 07:39:53 437.490
CUTE-I 26 Sep 07:31:20 07:36:03 31° 97° (E) 07:40:45 437.470
RS-15 26 Sep 07:33:58 07:46:07 65° 247° (WSW) 07:57:53 29.354- 29.394
DOVE 4 26 Sep 07:45:14 07:48:05 18° 93° (E) 07:50:54 437.250
NOAA 18 26 Sep 07:55:10 08:00:19 41° 99° (E) 08:05:27 137.9125
HORYU 2 26 Sep 07:56:22 08:00:02 26° 291° (WNW) 08:03:42 437.375
LilacSat-2 26 Sep 08:12:35 08:16:25 80° 283° (WNW) 08:20:16 437.200
HO-68 26 Sep 08:17:45 08:21:09 14° 90° (E) 08:24:32 435.675
